IT9AOI Weather Reports


time (UTC)temp
F
wind
direction
speed
knots
gust
knots
rain 1hr
in
rain 24hr
in
rain mn
in
humidity
%
barometer
mb
20260906110043 94 225 2.6 3.5 0.00 0.00 0.00 19 1022.4
20260906105943 94 225 2.6 3.5 0.00 0.00 0.00 19 1022.7
20260906105842 94 0 2.6 3.5 0.00 0.00 0.00 19 1022.7
20260906105642 94 0 3.5 4.3 0.00 0.00 0.00 19 1022.9
20260906105442 94 90 4.3 7.0 0.00 0.00 0.00 19 1022.7
20260906105343 94 0 3.5 4.3 0.00 0.00 0.00 19 1022.9
20260906105243 94 225 4.3 6.1 0.00 0.00 0.00 19 1022.8
20260906105142 94 270 4.3 6.1 0.00 0.00 0.00 19 1022.8
20260906105042 94 0 2.6 3.5 0.00 0.00 0.00 19 1022.6
20260906104943 94 0 1.7 2.6 0.00 0.00 0.00 19 1022.7
20260906104842 94 0 1.7 2.6 0.00 0.00 0.00 19 1022.6
20260906104543 94 0 3.5 3.5 0.00 0.00 0.00 19 1022.6
20260906103641 94 0 3.5 3.5 0.00 0.00 0.00 19 1023.2
20260906103543 94 0 3.5 3.5 0.00 0.00 0.00 19 1022.7
20260906103441 94 0 3.5 3.5 0.00 0.00 0.00 19 1022.8
20260906103342 94 0 3.5 3.5 0.00 0.00 0.00 19 1022.8
20260906103143 94 135 2.6 3.5 0.00 0.00 0.00 19 1022.7
20260906102941 94 0 1.7 2.6 0.00 0.00 0.00 19 1022.7
20260906102743 94 0 1.7 2.6 0.00 0.00 0.00 19 1022.9
20260906102442 94 0 1.7 1.7 0.00 0.00 0.00 19 1022.9
20260906102143 93 315 0.9 1.7 0.00 0.00 0.00 19 1023.1
20260906101843 93 0 1.7 3.5 0.00 0.00 0.00 19 1022.9
20260906101541 92 0 2.6 3.5 0.00 0.00 0.00 19 1022.9
20260906101443 92 0 4.3 6.1 0.00 0.00 0.00 19 1022.9
20260906101242 92 0 3.5 4.3 0.00 0.00 0.00 19 1022.9
20260906101142 92 0 3.5 4.3 0.00 0.00 0.00 19 1023.2
20260906100942 94 0 3.5 3.5 0.00 0.00 0.00 19 1023.2
20260906100841 94 0 1.7 2.6 0.00 0.00 0.00 19 1023.3
20260906100541 95 180 2.6 3.5 0.00 0.00 0.00 19 1023.3
20260906100143 94 180 1.7 2.6 0.00 0.00 0.00 19 1023.2
20260906100042 94 180 1.7 2.6 0.00 0.00 0.00 19 1023.2
20260906095942 94 180 1.7 2.6 0.00 0.00 0.00 19 1023.1
20260906095842 94 0 1.7 1.7 0.00 0.00 0.00 19 1023.4
20260906095742 94 180 0.9 1.7 0.00 0.00 0.00 19 1023.5
20260906095643 93 0 1.7 1.7 0.00 0.00 0.00 19 1023.5
20260906095542 93 0 1.7 1.7 0.00 0.00 0.00 19 1023.1
20260906095441 93 180 1.7 1.7 0.00 0.00 0.00 19 1023.2
20260906095342 93 90 2.6 3.5 0.00 0.00 0.00 19 1023.2
20260906095242 93 0 3.5 4.3 0.00 0.00 0.00 19 1023.3
20260906095042 94 0 2.6 3.5 0.00 0.00 0.00 19 1023.2
20260906094842 94 0 0.0 1.7 0.00 0.00 0.00 19 1023.4
20260906094642 94 270 1.7 1.7 0.00 0.00 0.00 19 1023.2
20260906094442 94 90 0.9 1.7 0.00 0.00 0.00 19 1023.3
20260906094242 94 90 1.7 2.6 0.00 0.00 0.00 19 1023.3
20260906093942 94 0 0.9 1.7 0.00 0.00 0.00 19 1023.4
20260906093842 94 0 0.9 1.7 0.00 0.00 0.00 19 1023.3
20260906093643 93 0 0.9 1.7 0.00 0.00 0.00 19 1023.2
20260906093543 93 0 0.9 1.7 0.00 0.00 0.00 19 1023.1
20260906093042 92 0 0.9 1.7 0.00 0.00 0.00 19 1023.3
20260906092941 92 180 2.6 3.5 0.00 0.00 0.00 19 1023.2
20260906092741 92 0 1.7 3.5 0.00 0.00 0.00 19 1023.4
20260906092642 92 0 1.7 2.6 0.00 0.00 0.00 19 1023.4
20260906092441 92 90 2.6 3.5 0.00 0.00 0.00 19 1023.4
20260906092142 92 0 3.5 3.5 0.00 0.00 0.00 19 1023.5
20260906092043 92 0 2.6 3.5 0.00 0.00 0.00 19 1023.3
20260906091643 93 0 3.5 3.5 0.00 0.00 0.00 19 1023.3
20260906091441 92 0 1.7 2.6 0.00 0.00 0.00 19 1023.3
20260906091241 92 90 0.9 1.7 0.00 0.00 0.00 19 1023.3
20260906091142 92 0 1.7 1.7 0.00 0.00 0.00 19 1023.2
20260906090741 92 180 0.9 1.7 0.00 0.00 0.00 19 1023.6
20260906090142 92 90 1.7 1.7 0.00 0.00 0.00 19 1023.3
20260906090043 92 90 1.7 1.7 0.00 0.00 0.00 19 1023.3
20260906085842 92 0 1.7 2.6 0.00 0.00 0.00 19 1023.6
20260906085742 93 0 1.7 3.5 0.00 0.00 0.00 19 1023.5
20260906085642 93 90 1.7 3.5 0.00 0.00 0.00 19 1023.5
20260906085242 92 0 1.7 1.7 0.00 0.00 0.00 19 1023.2
20260906085142 91 0 0.9 1.7 0.00 0.00 0.00 19 1023.4
20260906085043 91 0 1.7 2.6 0.00 0.00 0.00 19 1023.3
20260906084943 91 0 1.7 1.7 0.00 0.00 0.00 19 1023.3
20260906084542 91 0 1.7 3.5 0.00 0.00 0.00 19 1023.2
20260906084042 91 270 1.7 2.6 0.00 0.00 0.00 19 1023.4
20260906083642 91 180 0.9 1.7 0.00 0.00 0.00 19 1023.2
20260906083343 91 0 1.7 1.7 0.00 0.00 0.00 19 1023.3
20260906083042 90 180 0.9 1.7 0.00 0.00 0.00 19 1023.4
20260906082942 90 180 0.0 0.9 0.00 0.00 0.00 19 1023.4
20260906082841 90 0 0.9 1.7 0.00 0.00 0.00 19 1023.4
20260906082742 89 0 1.7 1.7 0.00 0.00 0.00 19 1023.2
20260906082642 89 0 1.7 2.6 0.00 0.00 0.00 19 1023.3
20260906082542 88 0 1.7 1.7 0.00 0.00 0.00 19 1023.5
20260906082341 88 0 0.9 1.7 0.00 0.00 0.00 19 1023.3
20260906082242 88 0 2.6 3.5 0.00 0.00 0.00 19 1023.3
20260906082141 87 0 0.9 1.7 0.00 0.00 0.00 19 1023.3
20260906082043 87 90 1.7 2.6 0.00 0.00 0.00 19 1023.6
20260906081942 87 138 1.7 2.6 0.00 0.00 0.00 19 1022.9
20260906081842 87 270 1.7 1.7 0.00 0.00 0.00 19 1023.4
20260906081542 86 180 2.6 3.5 0.00 0.00 0.00 19 1023.4
20260906081442 87 270 3.5 5.2 0.00 0.00 0.00 19 1023.3
20260906081143 87 0 1.7 2.6 0.00 0.00 0.00 19 1023.4
20260906081041 86 0 1.7 3.5 0.00 0.00 0.00 19 1023.3
20260906080941 86 180 1.7 1.7 0.00 0.00 0.00 19 1023.2
20260906080841 86 180 1.7 3.5 0.00 0.00 0.00 19 1023.3
20260906080743 86 0 3.5 6.1 0.00 0.00 0.00 19 1023.3
20260906080342 87 0 3.5 5.2 0.00 0.00 0.00 19 1023.2
20260906080242 87 0 0.9 1.7 0.00 0.00 0.00 19 1022.9
20260906080045 87 0 0.9 1.7 0.00 0.00 0.00 19 1023.2
20260906075743 86 270 1.7 1.7 0.00 0.00 0.00 19 1023.2
20260906075641 86 180 1.7 3.5 0.00 0.00 0.00 19 1023.1
20260906075542 86 0 1.7 1.7 0.00 0.00 0.00 19 1023.3
20260906075342 85 138 1.7 2.6 0.00 0.00 0.00 19 1022.8
20260906075241 85 0 2.6 3.5 0.00 0.00 0.00 19 1022.9
20260906075142 85 0 2.6 3.5 0.00 0.00 0.00 19 1023.1
20260906075041 85 270 2.6 4.3 0.00 0.00 0.00 19 1022.8
20260906074942 85 270 2.6 4.3 0.00 0.00 0.00 19 1022.7
20260906074642 85 270 4.3 7.0 0.00 0.00 0.00 19 1023.1
20260906074543 85 138 1.7 3.5 0.00 0.00 0.00 19 1023.1
20260906074242 85 315 2.6 3.5 0.00 0.00 0.00 19 1022.8
20260906074142 85 0 2.6 3.5 0.00 0.00 0.00 19 1022.8
20260906074042 85 180 2.6 4.3 0.00 0.00 0.00 19 1022.9
20260906073942 85 180 2.6 4.3 0.00 0.00 0.00 19 1022.9
20260906073742 85 225 3.5 3.5 0.00 0.00 0.00 19 1023.1
20260906072442 84 138 3.5 5.2 0.00 0.00 0.00 19 1022.7
20260906072242 84 0 1.7 3.5 0.00 0.00 0.00 19 1022.9
20260906072143 84 315 1.7 3.5 0.00 0.00 0.00 19 1022.5
20260906071941 84 270 3.5 3.5 0.00 0.00 0.00 19 1022.7
20260906071741 84 180 2.6 3.5 0.00 0.00 0.00 19 1022.6
20260906071342 84 0 2.6 3.5 0.00 0.00 0.00 19 1022.7
20260906071041 84 180 2.6 3.5 0.00 0.00 0.00 19 1022.6
20260906070942 84 0 1.7 3.5 0.00 0.00 0.00 19 1022.7
20260906070843 84 270 2.6 3.5 0.00 0.00 0.00 19 1022.9
20260906070742 84 270 3.5 3.5 0.00 0.00 0.00 19 1022.7
20260906070442 84 180 1.7 3.5 0.00 0.00 0.00 19 1022.5
20260906070341 84 180 3.5 3.5 0.00 0.00 0.00 19 1022.3
20260906070242 83 0 3.5 4.3 0.00 0.00 0.00 19 1022.7
20260906065942 83 0 3.5 4.3 0.00 0.00 0.00 19 1022.6
20260906065742 83 138 2.6 3.5 0.00 0.00 0.00 19 1022.5
20260906065641 83 180 3.5 4.3 0.00 0.00 0.00 19 1022.6
20260906065142 83 315 2.6 3.5 0.00 0.00 0.00 19 1022.5
20260906064842 83 0 1.7 2.6 0.00 0.00 0.00 19 1022.6
20260906064742 83 0 1.7 3.5 0.00 0.00 0.00 19 1022.7
20260906064543 82 270 1.7 3.5 0.00 0.00 0.00 19 1022.6
20260906064443 82 0 2.6 3.5 0.00 0.00 0.00 19 1022.5
20260906064342 82 0 1.7 3.5 0.00 0.00 0.00 19 1022.4
20260906063843 81 270 1.7 2.6 0.00 0.00 0.00 19 1022.4
20260906063642 81 180 2.6 3.5 0.00 0.00 0.00 19 1022.6
20260906061503 79 270 3.5 4.3 0.00 0.00 0.00 100 1022.5